[[{"header":{"parameterUnit":"m.s-1","parameterCategory":1,"la1":30.2991,"la2":30.254,"lo1":-89.0895,"lo2":-89.0444,"dy":0.0017,"dx":0.0017,"nx":28,"ny":28,"refTime":"2024-03-02T03:00:00:Z","depth":0,"parameterNumber":2,"parameterNumberName":"U-component_of_WINDS"},"data":[0,0,0,0,0,0,0,0,0,0,0,0,0,0,0,0,0,0,0,0,0,0,0,0,0,0,0,0,0,0,0,0,0,0,0,0,0,0,0,0,0,0,0,0,0,0,0,0,0,0,0,0,0,0,0,0,0,0,-4.4766,-4.4767,0,-4.4832,-4.4832,-4.4833,-4.4767,-4.4764,-4.4761,-4.4759,-4.4826,-4.483,-4.4834,0,0,0,0,0,0,0,0,0,0,0,0,0,-4.4585,-4.4589,-4.4766,-4.4767,-4.4768,-4.4832,-4.4832,-4.4833,-4.4767,-4.4764,-4.4761,-4.4758,-4.4824,-4.4829,-4.4834,0,0,0,0,0,0,0,0,0,0,0,0,0,-4.4658,-4.459,-4.4766,-4.4743,-4.4741,-4.4831,-4.4833,-4.4834,-4.4768,-4.4764,-4.476,-4.4756,-4.4823,-4.4829,-4.4835,-4.4952,0,0,-4.4854,-4.4857,0,0,0,0,0,0,0,0,-4.4654,-4.4665,-4.4745,-4.4744,-4.4743,-4.4787,-4.4793,-4.4873,-4.4769,-4.4758,-4.4759,-4.4754,-4.4816,-4.4823,-4.4843,-4.4955,-4.4958,-4.4855,-4.4858,-4.4861,-4.4863,0,0,0,0,0,0,0,-4.4649,-4.4662,-4.4792,-4.4746,-4.4745,-4.4729,-4.4735,-4.4808,-4.4808,-4.4758,-4.4754,-4.4762,-4.4815,-4.4837,-4.4844,-4.4959,-4.4854,-4.486,-4.4864,-4.4866,-4.517,-4.5174,0,0,0,0,0,0,-4.4647,-4.4658,-4.479,-4.4794,-4.4688,-4.4735,-4.4742,-4.4777,-4.4807,-4.4808,-4.4766,-4.4759,-4.4829,-4.4837,-4.4846,-4.4985,-4.4861,-4.4867,-4.4871,-4.5166,-4.5171,-4.5175,0,0,0,0,0,0,-4.4643,-4.4659,-4.4787,-4.4725,-4.474,-4.4743,-4.4782,-4.478,-4.4803,-4.4812,-4.4812,-4.4789,-4.4826,-4.4838,-4.4926,-4.4986,-4.487,-4.4876,-4.516,-4.5167,-4.5173,-4.5262,0,0,0,0,0,0,-4.4638,-4.4658,-4.4702,-4.4726,-4.4744,-4.4866,-4.4786,-4.4784,-4.4814,-4.4806,-4.4834,-4.4835,-4.4824,-4.4917,-4.4932,-4.4992,-4.488,-4.5155,-4.5163,-4.5171,-4.5254,-4.5271,-4.5285,0,0,0,0,0,-4.4632,-4.4724,-4.4705,-4.4721,-4.4799,-4.4869,-4.4879,-4.4864,-4.4819,-4.4863,-4.487,-4.4834,-4.4978,-4.4927,-4.4943,-4.5006,-4.5151,-4.5161,-4.517,-4.5247,-4.5267,-4.5285,0,0,0,0,0,0,-4.4706,-4.4727,-4.4705,-4.4808,-4.4838,-4.4858,-4.4913,-4.4887,-4.4929,-4.492,-4.49,-4.4907,-4.5001,-4.5013,-4.4956,-4.5121,-4.5057,-4.507,-4.5109,-4.5129,-4.5145,-4.5139,-4.4886,0,0,0,0,0,-4.4735,-4.4791,-4.4806,-4.4895,-4.4911,-4.491,-4.494,-4.4927,-4.4956,-4.4968,-4.4981,-4.5011,-4.5063,-4.5097,-4.5145,-4.5256,-4.5261,-4.5308,-4.5324,-4.5337,-4.5348,-4.5408,-4.5428,-4.5207,-4.5207,-4.5207,0,0,-4.4794,-4.4812,-4.4848,-4.4911,-4.4932,-4.499,-4.4921,-4.4985,-4.5028,-4.4978,-4.5061,-4.5073,-4.5105,-4.5205,-4.525,-4.5218,-4.5411,-4.5349,-4.5359,-4.5363,-4.542,-4.5441,-4.5459,-4.5214,-4.5212,-4.5211,0,0,-4.493,-4.4951,-4.5027,-4.505,-4.5083,-4.5083,-4.5101,-4.5126,-4.5132,-4.5216,-4.518,-4.5231,-4.5321,-4.5346,-4.537,-4.552,-4.5488,-4.5536,-4.5617,-4.5676,-4.5693,-4.5709,-4.5761,-4.578,-4.5548,-4.5548,-4.5548,0,-4.4999,-4.5085,-4.507,-4.5137,-4.5166,-4.5125,-4.5202,-4.5225,-4.5273,-4.5293,-4.5258,-4.537,-4.5389,-4.5494,-4.5531,-4.5553,-4.5573,-4.5531,-4.5692,-4.5707,-4.5721,-4.5771,-4.5791,-4.5553,-4.5553,-4.5552,-4.5552,0,-4.5168,-4.5228,-4.5287,-4.5334,-4.5369,-4.5442,-4.5437,-4.5476,-4.546,-4.5463,-4.555,-4.5572,-4.5624,-4.5649,-4.5634,-4.5753,-4.5732,-4.5695,-4.5629,-4.5748,-4.5794,-4.5813,-4.5561,-4.5559,-4.5558,-4.5556,0,0,-4.5349,-4.5389,-4.5411,-4.5432,-4.5467,-4.5514,-4.5585,-4.5637,-4.5669,-4.5705,-4.5763,-4.5842,-4.5808,-4.5836,-4.5824,-4.5876,-4.5992,-4.5832,-4.5832,-4.5859,-4.6124,-4.6149,-4.6172,-4.5973,-4.5976,-4.5979,-4.612,0,-4.5486,-4.5608,-4.5598,-4.5714,-4.577,-4.5734,-4.5796,-4.5824,-4.583,-4.5879,-4.5885,-4.5941,-4.5893,-4.5909,-4.5959,-4.5967,-4.6044,-4.5957,-4.6026,-4.6029,-4.6016,-4.6196,-4.6223,-4.6355,-4.6138,-4.6141,-4.6144,0,-4.566,-4.5702,-4.5824,-4.5852,-4.5875,-4.5931,-4.5978,-4.6025,-4.6058,-4.6058,-4.6091,-4.6071,-4.6143,-4.6079,-4.6178,-4.6119,-4.6147,-4.6156,-4.6161,-4.6164,-4.6091,-4.6202,-4.6397,-4.6416,-4.6172,-4.617,-4.6168,0,-4.5778,-4.5866,-4.595,-4.597,-4.6005,-4.6045,-4.6061,-4.609,-4.6122,-4.6164,-4.6185,-4.6235,-4.6261,-4.6301,-4.6295,-4.6249,-4.6396,-4.6331,-4.6398,-4.6398,-4.6427,-4.6425,-4.6627,-4.645,-4.645,-4.645,-4.6449,0,-4.593,-4.6006,-4.6004,-4.6055,-4.6139,-4.6128,-4.6212,-4.6224,-4.625,-4.6304,-4.6276,-4.6327,-4.6318,-4.6369,-4.6365,-4.6448,-4.6461,-4.6463,-4.646,-4.6464,-4.6463,-4.6479,-4.6469,-4.6455,-4.6454,-4.6453,-4.6452,0,-4.6074,-4.6076,-4.6165,-4.6193,-4.6201,-4.6262,-4.6285,-4.6334,-4.6339,-4.6407,-4.6423,-4.643,-4.6489,-4.6489,-4.6556,-4.6553,-4.6654,-4.6642,-4.6643,-4.6639,-4.6705,-4.6698,-4.6923,-4.6951,-4.6758,-4.676,-4.6762,0,-4.6169,-4.6227,-4.6261,-4.6295,-4.6314,-4.637,-4.6403,-4.6395,-4.643,-4.6473,-4.6517,-4.6574,-4.6618,-4.6715,-4.6726,-4.6778,-4.6766,-4.6841,-4.6773,-4.6775,-4.6764,-4.676,-4.6765,-4.6853,-4.6855,-4.6857,-4.6858,0,-4.6338,-4.6336,-4.6385,-4.6435,-4.6476,-4.6514,-4.655,-4.658,-4.6576,-4.6618,-4.6678,-4.6713,-4.6782,-4.6839,-4.6889,-4.6906,-4.6882,-4.6881,-4.6898,-4.69,-4.6897,-4.6898,-4.6676,-4.6874,-4.6873,-4.6872,-4.6871,-4.687,-4.6459,-4.6508,-4.654,-4.6596,-4.6622,-4.6657,-4.6705,-4.6717,-4.6767,-4.6822,-4.6816,-4.6883,-4.6915,-4.698,-4.7003,-4.7055,-4.7028,-4.7055,-4.7061,-4.7067,-4.7073,-4.6892,-4.7065,-4.7064,-4.7064,-4.7063,-4.7063,0,-4.6624,-4.6643,-4.6695,-4.6746,-4.679,-4.6766,-4.6805,-4.6843,-4.6902,-4.6935,-4.6981,-4.705,-4.7106,-4.7123,-4.7177,-4.7216,-4.7206,-4.723,-4.7225,-4.723,-4.7095,-4.7073,-4.7237,-4.7237,-4.7237,-4.7237,-4.7237,-4.7237,-4.6714,-4.6797,-4.68,-4.6896,-4.6915,-4.698,-4.7005,-4.7037,-4.7063,-4.7142,-4.7189,-4.72,-4.7227,-4.7283,-4.7333,-4.7336,-4.7356,-4.7385,-4.7384,-4.7257,-4.7239,-4.7222,-4.7202,-4.739,-4.739,-4.7514,-4.7515,-4.7516]},{"header":{"parameterUnit":"m.s-1","parameterCategory":1,"la1":30.2991,"la2":30.254,"lo1":-89.0895,"lo2":-89.0444,"dy":0.0017,"dx":0.0017,"nx":28,"ny":28,"refTime":"2024-03-02T03:00:00:Z","depth":0,"parameterNumber":3,"parameterNumberName":"V-component_of_WINDS"},"data":[0,0,0,0,0,0,0,0,0,0,0,0,0,0,0,0,0,0,0,0,0,0,0,0,0,0,0,0,0,0,0,0,0,0,0,0,0,0,0,0,0,0,0,0,0,0,0,0,0,0,0,0,0,0,0,0,0,0,1.2792,1.2793,0,1.2846,1.2846,1.2847,1.2881,1.2881,1.2882,1.2882,1.2934,1.2935,1.2936,0,0,0,0,0,0,0,0,0,0,0,0,0,1.272,1.2721,1.2792,1.2793,1.2794,1.2845,1.2846,1.2847,1.2881,1.2881,1.2882,1.2882,1.2933,1.2935,1.2936,0,0,0,0,0,0,0,0,0,0,0,0,0,1.276,1.2722,1.2792,1.2817,1.282,1.2845,1.2846,1.2847,1.2881,1.2882,1.2882,1.2882,1.2933,1.2935,1.2936,1.294,0,0,1.2942,1.2942,0,0,0,0,0,0,0,0,1.2758,1.2763,1.2813,1.2815,1.2819,1.2857,1.284,1.2878,1.2881,1.2858,1.2882,1.2882,1.2908,1.2912,1.2921,1.2943,1.2945,1.2942,1.2943,1.2944,1.2944,0,0,0,0,0,0,0,1.2755,1.2761,1.2813,1.2813,1.2817,1.2826,1.2832,1.2847,1.288,1.286,1.2863,1.2868,1.2909,1.2919,1.2922,1.2946,1.2942,1.2943,1.2944,1.2945,1.2976,1.2976,0,0,0,0,0,0,1.2748,1.2758,1.2812,1.2815,1.2789,1.2827,1.2833,1.2844,1.288,1.2886,1.2868,1.287,1.2916,1.292,1.2924,1.2933,1.2944,1.2945,1.2946,1.2976,1.2976,1.2976,0,0,0,0,0,0,1.2747,1.2753,1.2809,1.2787,1.2795,1.2827,1.284,1.2845,1.2855,1.2886,1.2892,1.2872,1.2916,1.2922,1.2937,1.2935,1.2946,1.2948,1.2977,1.2976,1.2976,1.2949,0,0,0,0,0,0,1.2745,1.2752,1.2754,1.2787,1.2796,1.2821,1.2839,1.2846,1.2858,1.2861,1.2891,1.2897,1.2917,1.2934,1.2939,1.2938,1.2949,1.2977,1.2976,1.2976,1.295,1.2948,1.2945,0,0,0,0,0,1.2742,1.2743,1.2754,1.276,1.2799,1.2821,1.2826,1.285,1.2858,1.286,1.2881,1.2896,1.2935,1.2935,1.2941,1.294,1.2977,1.2977,1.2976,1.2951,1.2948,1.2946,0,0,0,0,0,0,1.2707,1.2748,1.276,1.2772,1.2793,1.2827,1.283,1.2846,1.2864,1.2866,1.2894,1.2901,1.2913,1.2928,1.2928,1.2947,1.2958,1.2958,1.2937,1.2934,1.2932,1.2928,1.295,0,0,0,0,0,1.2701,1.2716,1.275,1.2758,1.2768,1.2797,1.2807,1.2824,1.2847,1.2856,1.2877,1.2898,1.2915,1.2925,1.2943,1.2953,1.296,1.2955,1.2953,1.2951,1.2951,1.2959,1.2958,1.2974,1.2974,1.2974,0,0,1.2688,1.2712,1.2719,1.2751,1.2769,1.2784,1.2804,1.2818,1.283,1.2857,1.2874,1.289,1.2916,1.2929,1.2935,1.2941,1.2948,1.295,1.2948,1.295,1.2958,1.2957,1.2955,1.2974,1.2974,1.2974,0,0,1.2672,1.2692,1.2701,1.2719,1.2748,1.2768,1.277,1.2802,1.2815,1.2832,1.2854,1.2867,1.2896,1.2914,1.2926,1.292,1.2935,1.2925,1.2913,1.2921,1.292,1.2919,1.2917,1.2917,1.2925,1.2925,1.2925,0,1.2652,1.2676,1.2703,1.2717,1.2731,1.2759,1.2769,1.2785,1.2817,1.2826,1.2833,1.2871,1.2889,1.2908,1.2907,1.2916,1.292,1.2921,1.2918,1.2917,1.2916,1.2916,1.2915,1.2924,1.2924,1.2924,1.2924,0,1.2651,1.2667,1.2671,1.2703,1.2718,1.2729,1.2758,1.277,1.2786,1.2806,1.2824,1.2848,1.2871,1.2877,1.2892,1.2898,1.2901,1.2912,1.2924,1.2913,1.2913,1.2913,1.2922,1.2922,1.2923,1.2923,0,0,1.2612,1.2662,1.2663,1.2679,1.2713,1.2726,1.274,1.2764,1.2774,1.2796,1.2808,1.2833,1.2845,1.2859,1.2877,1.2883,1.2879,1.2894,1.2895,1.2891,1.2889,1.288,1.2879,1.289,1.289,1.289,1.2887,0,1.2602,1.2629,1.2655,1.2672,1.2689,1.2717,1.2729,1.2751,1.277,1.2787,1.2808,1.2825,1.2839,1.2848,1.2856,1.2878,1.2879,1.2878,1.2902,1.2902,1.2895,1.2879,1.287,1.2866,1.2887,1.2887,1.2887,0,1.2593,1.2616,1.2635,1.2671,1.2678,1.2689,1.2715,1.273,1.2757,1.277,1.2788,1.2807,1.2824,1.2834,1.2857,1.2856,1.2868,1.288,1.288,1.2883,1.2894,1.2882,1.2865,1.2865,1.2887,1.2887,1.2887,0,1.2565,1.26,1.2617,1.2629,1.267,1.2677,1.2695,1.2722,1.2736,1.2758,1.2768,1.2791,1.2804,1.2822,1.2848,1.2853,1.2869,1.2881,1.2881,1.288,1.2883,1.2882,1.2868,1.2889,1.2889,1.2889,1.2889,0,1.2551,1.2562,1.2605,1.2615,1.2628,1.2659,1.2671,1.2691,1.2716,1.273,1.2756,1.2769,1.2802,1.2819,1.284,1.2857,1.2862,1.2874,1.2879,1.2872,1.287,1.2879,1.288,1.2889,1.2889,1.2889,1.2889,0,1.252,1.255,1.257,1.2608,1.2618,1.2627,1.266,1.2671,1.2693,1.2711,1.2717,1.2751,1.2773,1.2801,1.2831,1.2845,1.286,1.2868,1.2851,1.2854,1.2853,1.2853,1.2844,1.2845,1.2866,1.2865,1.2865,0,1.2509,1.2519,1.2559,1.2572,1.2589,1.2608,1.2623,1.2654,1.2669,1.2702,1.2709,1.2734,1.2755,1.2789,1.2816,1.284,1.2848,1.2844,1.2852,1.2845,1.2849,1.2849,1.285,1.2841,1.2841,1.2841,1.284,0,1.2487,1.2502,1.2523,1.255,1.2568,1.259,1.2614,1.2622,1.2658,1.2674,1.2697,1.2714,1.2747,1.2771,1.2799,1.2816,1.2834,1.2838,1.2839,1.2832,1.2822,1.2828,1.2846,1.2838,1.2838,1.2838,1.2838,1.2838,1.2467,1.2478,1.2508,1.2532,1.2553,1.2575,1.2588,1.2613,1.2634,1.2663,1.268,1.2704,1.2732,1.2772,1.279,1.2809,1.2815,1.2817,1.2817,1.2817,1.2816,1.2819,1.2814,1.2814,1.2814,1.2814,1.2814,0,1.2447,1.2469,1.249,1.2524,1.2542,1.256,1.2587,1.2601,1.2622,1.2648,1.2669,1.2697,1.2721,1.2751,1.2778,1.2787,1.2797,1.2793,1.2793,1.2797,1.2808,1.2804,1.2786,1.2786,1.2786,1.2786,1.2786,1.2786,1.2439,1.2458,1.2477,1.2508,1.253,1.2554,1.2568,1.2589,1.261,1.2641,1.2662,1.2682,1.271,1.2739,1.2762,1.277,1.2779,1.2773,1.2784,1.2793,1.2796,1.2798,1.2795,1.2775,1.2775,1.2772,1.2772,1.2772]}]]